Location: Toronto
(43.6667°N, 79.4167°W)
Time: 12:24:35
(UTC-04:00)

X-37B - Pass Details

Date: 20 June 2021
Orbit: 383 x 392 km, 45.0° (Epoch: 01 July)

Event Time Altitude Azimuth Distance (km) Brightness Sun altitude
Exits shadow 04:10:09 - 283° (WNW) 1,922 3.8 -12.3°
Reaches altitude 10° 04:11:25 10° 281° (WNW) 1,406 3.1 -12.2°
Maximum altitude 04:14:33 65° 199° (SSW) 426 0.5 -11.8°
Drops below altitude 10° 04:17:41 10° 117° (ESE) 1,405 3.6 -11.4°
Sets 04:19:46 0° 114° (ESE) 2,259 4.7 -11.2°
